Simultaneous Nadir Overpasses (SNOs) Predictions

Prediction of SNOs between GOES-17 and NPP Satellite Orbit:

Table of predicted SNOs for the next 14.0 days since TLE Epoch: 5/7/2022
Index Date Time (GOES-17) GOES-17 Lat,Lon NPP Lat,Lon Distance(km) Time Diff (sec)
1 05/07/2022 22:36:37 0.02,-137.18 -0.06,-137.51 36.69 80
2 05/08/2022 22:15:12 0.02,-137.18 0.95,-132.97 480.06 80
3 05/10/2022 10:39:38 -0.01,-137.19 0.23,-138.23 118.90 80
4 05/11/2022 10:18:12 -0.02,-137.19 -0.79,-133.70 397.59 80
5 05/12/2022 22:42:48 0.01,-137.17 -0.39,-139.00 207.77 80
6 05/13/2022 22:21:22 0.01,-137.17 0.62,-134.46 308.31 80
7 05/15/2022 10:45:49 -0.01,-137.16 0.55,-139.73 292.02 80
8 05/16/2022 10:24:23 -0.01,-137.15 -0.47,-135.19 223.44 80
9 05/17/2022 22:48:57 0.01,-137.12 -0.76,-140.48 383.76 80
10 05/18/2022 22:27:32 0.01,-137.10 0.26,-135.95 131.14 80
11 05/20/2022 10:49:18 -0.01,-137.08 0.91,-141.21 470.94 80
